Location: Newark
(41.9364°N, 2.8061°E)
Time: 16:52:20
(UTC+00:00)

X-37B - Pass Details

Date: 03 August 2021
Orbit: 381 x 393 km, 45.0° (Epoch: 29 August)

Event Time Altitude Azimuth Distance (km) Brightness Sun altitude
Exits shadow 03:12:17 39° 222° (SW) 590 1.0 -15.2°
Maximum altitude 03:13:14 64° 156° (SSE) 426 0.6 -15.1°
Drops below altitude 10° 03:16:20 10° 75° (ENE) 1,398 4.4 -14.6°
Sets 03:18:25 0° 72° (ENE) 2,253 5.8 -14.3°
